Regional Weather Roundup
Issued by NWS

Home | Current Version | Previous Version | Graphics & Text | Print | Product List | Glossary On
Versions: 1 2 3 4 5 6 7 8 9 10 11 12 13 14 15 16 17 18 19 20 21 22 23 24 25 26 27 28 29 30 31 32 33 34 35 36 37 38 39 40 41 42 43 44 45 46 47 48 49 50
000
ASUS43 KOAX 181702
RWRNE

WEATHER ROUNDUP FOR NEBRASKA
NATIONAL WEATHER SERVICE OMAHA NE
1100 AM CST MON DEC 18 2017

NOTES: SATELLITE DATA IS BEING USED TO AUGMENT CLOUD COVER ABOVE
       12000 FEET.
       "FAIR" INDICATES FEW OR NO CLOUDS BELOW 12,000 FEET WITH NO
       SIGNIFICANT WEATHER AND/OR OBSTRUCTIONS TO VISIBILITY.


NEZ001>004-019>022-054>056-181800-
NEBRASKA PANHANDLE

CITY           SKY/WX    TMP DP  RH WIND       PRES   REMARKS
SCOTTSBLUFF    CLOUDY    49  25  39 W14       29.90S
ALLIANCE       CLOUDY    46  23  40 SW16      29.87S
CHADRON        CLOUDY    33  23  66 NE3       29.84R
GORDON         FAIR      40  22  48 SW15G21   29.82S WCI  32
KIMBALL        CLOUDY    47  27  45 W14       29.94S
SIDNEY         CLOUDY    47  28  47 SW15      29.94R
$$

NEZ057>060-069>072-079>082-181800-
SOUTHWEST NEBRASKA

CITY           SKY/WX    TMP DP  RH WIND       PRES   REMARKS
NORTH PLATTE   SUNNY     39  29  67 W7        29.96R WCI  34
IMPERIAL       SUNNY     40  28  62 W13       29.98R WCI  32
LEXINGTON      SUNNY     42  31  66 W5        29.97S
MCCOOK         SUNNY     34  28  79 W8        30.00R WCI  27
OGALLALA       CLOUDY    36  28  73 W14       29.95S WCI  27
$$

NEZ005>010-023>029-035>040-094-181800-
NORTH CENTRAL NEBRASKA

CITY           SKY/WX    TMP DP  RH WIND       PRES   REMARKS
VALENTINE      SUNNY     44  24  45 SW12      29.83S
AINSWORTH      SUNNY     44  26  50 W14       29.83F
BROKEN BOW     SUNNY     43  26  51 W16       29.92R
O`NEILL        SUNNY     42  27  55 SW12      29.85F
ORD            SUNNY     43  26  51 SW12      29.91R
THEDFORD       SUNNY     46  23  41 W16G23    29.89F
$$

NEZ041-046>049-061>064-073>077-083>087-181800-
SOUTH CENTRAL NEBRASKA

CITY           SKY/WX    TMP DP  RH WIND       PRES   REMARKS
GRAND ISLAND   SUNNY     42  27  55 SW14      29.96F
AURORA         SUNNY     41  27  57 W13       29.96F
HASTINGS       SUNNY     40  27  59 SW7       29.98S
HEBRON         SUNNY     39  30  70 W6        30.02S WCI  35
HOLDREGE       SUNNY     39  29  68 W12       29.98F WCI  32
KEARNEY        SUNNY     40  28  62 SW12      29.97F WCI  33
YORK           SUNNY     41  28  60 W10       29.97F
$$

NEZ011>018-030>034-042>045-181800-
NORTHEAST NEBRASKA

CITY           SKY/WX    TMP DP  RH WIND       PRES   REMARKS
NORFOLK        SUNNY     41  27  57 SW9       29.89S
ALBION         SUNNY     42  28  55 SW6       29.91S
BLAIR          SUNNY     40  30  67 SW13      29.93S WCI  33
COLUMBUS       SUNNY     41  26  55 SW12      29.94F
FREMONT        SUNNY     42  29  60 SW10      29.94S
TEKAMAH        SUNNY     40  28  62 SW18      29.92S WCI  31
WAYNE          SUNNY     42  28  58 SW13G20   29.88S
$$

NEZ050>053-065>068-078-088>093-181800-
SOUTHEAST NEBRASKA

CITY           SKY/WX    TMP DP  RH WIND       PRES   REMARKS
LINCOLN        SUNNY     42  29  59 SW10      29.99F
OMAHA EPPLEY   MOSUNNY   42  27  55 SW12      29.95S
BEATRICE       SUNNY     39  31  74 SW9       30.01S WCI  33
FALLS CITY     SUNNY     44  34  67 SW10      30.02F
NEBRASKA CITY  SUNNY     39  35  85 SW16      29.99S WCI  30
PLATTSMOUTH    SUNNY     41  33  74 SW13      29.97S
$$

NEZ044-045-051>053-067-181800-
OMAHA AREA

CITY           SKY/WX    TMP DP  RH WIND       PRES   REMARKS
OMAHA EPPLEY   MOSUNNY   42  27  55 SW12      29.95S
BLAIR          SUNNY     40  30  67 SW13      29.93S WCI  33
FREMONT        SUNNY     42  29  60 SW10      29.94S
MILLARD        SUNNY     41  30  63 W7        29.96F
OFFUTT AFB     SUNNY     41  29  62 SW10      29.96S
PLATTSMOUTH    SUNNY     41  33  74 SW13      29.97S
WAHOO          FAIR      43  28  55 SW13      29.95S
$$




USA.gov is the U.S. government's official web portal to all federal, state and local government web resources and services.